Weather History for Superior, WI

Change the Weather History Date:

Saturday, February 8, 2014

  Actual Average Record
Temperature  
Mean Temperature 0 °F -  
Max Temperature 16 °F 22 °F 16 °F (2014)
Min Temperature -17 °F 1 °F -17 °F (2014)
Degree Days  
Heating Degree Days 66    
Moisture  
Dew Point -6 °F    
Average Humidity 71    
Maximum Humidity 86    
Minimum Humidity 58    
Precipitation  
Precipitation 0.00 in - - ()
Sea Level Pressure  
Sea Level Pressure 30.12 in    
Wind  
Wind Speed 4 mph (WSW)    
Max Wind Speed 9 mph    
Max Gust Speed -    
Visibility 10 miles    
Events      
Averages and records for this station are not official NWS values.
T = Trace of Precipitation, MM = Missing Value Source: NWS Daily Summary

Daily Weather History Graph

Daily Weather History Graph

Search for Another Location

Airport:

Trip Planner

Search our weather history database for the weather conditions in past years. The results will help you decide how hot, cold, wet, or windy it might be!

Date:

Astronomy

Feb. 08, 2014 Rise Set
Actual Time 7:22 AM CST 5:22 PM CST
Civil Twilight 6:51 AM CST 5:54 PM CST
Nautical Twilight 6:15 AM CST 6:30 PM CST
Astronomical Twilight 5:40 AM CST 7:05 PM CST
Moon 12:11 PM CST (2/8) 2:41 AM CST (2/8)
Length of Visible Light 11h 03m
Length of Day
9h 59m
Waxing Gibbous, 69% of the Moon is Illuminated
Feb 8
Waxing Gibbous
Feb 14
Full
Feb 22
Last Quarter
Mar 1
New
Mar 8
First Quarter

Hourly Weather History & Observations

Time (CST) Temp. Windchill Dew Point Humidity Pressure Visibility Wind Dir Wind Speed Gust Speed Precip Events Conditions
12:15 AM -2.2 °F -14.2 °F -10.3 °F 68% 30.14 in 10.0 mi SW 5.8 mph - N/A   Clear
12:35 AM -0.6 °F -12.2 °F -9.6 °F 66% 30.14 in 10.0 mi WSW 5.8 mph - N/A   Clear
12:55 AM -2.2 °F -12.5 °F -10.5 °F 68% 30.14 in 10.0 mi SW 4.6 mph - N/A   Clear
1:15 AM -2.4 °F -12.7 °F -10.3 °F 69% 30.14 in 10.0 mi WSW 4.6 mph - N/A   Clear
1:35 AM -2.0 °F -12.2 °F -10.1 °F 68% 30.14 in 10.0 mi WSW 4.6 mph - N/A   Clear
1:55 AM -2.4 °F -10.6 °F -10.3 °F 69% 30.15 in 10.0 mi West 3.5 mph - N/A   Clear
2:15 AM -4.2 °F - -11.2 °F 72% 30.14 in 10.0 mi Calm Calm - N/A   Clear
2:35 AM -8.9 °F -20.2 °F -14.6 °F 76% 30.14 in 10.0 mi SW 4.6 mph - N/A   Clear
2:55 AM -5.1 °F -15.8 °F -11.2 °F 75% 30.14 in 10.0 mi SW 4.6 mph - N/A   Clear
3:15 AM -7.4 °F -16.3 °F -12.5 °F 79% 30.14 in 10.0 mi SW 3.5 mph - N/A   Clear
3:35 AM -6.7 °F -15.5 °F -11.2 °F 81% 30.14 in 10.0 mi SW 3.5 mph - N/A   Clear
3:55 AM -9.6 °F -21.1 °F -14.6 °F 78% 30.14 in 10.0 mi SSW 4.6 mph - N/A   Clear
4:15 AM -11.9 °F -23.8 °F -15.5 °F 84% 30.14 in 10.0 mi SW 4.6 mph - N/A   Clear
4:35 AM -12.5 °F -22.1 °F -16.6 °F 82% 30.13 in 10.0 mi SSW 3.5 mph - N/A   Clear
4:55 AM -10.8 °F - -14.6 °F 83% 30.14 in 10.0 mi Calm Calm - N/A   Clear
5:15 AM -12.6 °F -22.3 °F -16.4 °F 83% 30.13 in 10.0 mi SSW 3.5 mph - N/A   Clear
5:35 AM -14.8 °F -24.8 °F -18.6 °F 83% 30.13 in 10.0 mi South 3.5 mph - N/A   Clear
5:55 AM -13.5 °F -25.7 °F -17.3 °F 83% 30.13 in 10.0 mi SSW 4.6 mph - N/A   Clear
6:15 AM -11.9 °F - -15.2 °F 85% 30.13 in 10.0 mi Calm Calm - N/A   Clear
6:35 AM -13.4 °F - -17.0 °F 84% 30.13 in 10.0 mi Calm Calm - N/A   Clear
6:55 AM -13.2 °F - -17.1 °F 82% 30.13 in 10.0 mi Calm Calm - N/A   Clear
7:15 AM -14.4 °F - -18.6 °F 82% 30.14 in 10.0 mi Calm Calm - N/A   Clear
7:35 AM -15.7 °F -25.8 °F -20.2 °F 80% 30.14 in 10.0 mi SSW 3.5 mph - N/A   Clear
7:55 AM -17.0 °F -29.7 °F -21.1 °F 81% 30.14 in 10.0 mi SSW 4.6 mph - N/A   Clear
8:15 AM -13.7 °F -25.9 °F -18.2 °F 80% 30.14 in 10.0 mi SSW 4.6 mph - N/A   Clear
8:35 AM -12.1 °F -21.7 °F -16.6 °F 80% 30.14 in 10.0 mi SSW 3.5 mph - N/A   Clear
8:55 AM -9.9 °F -21.5 °F -14.6 °F 80% 30.14 in 10.0 mi SSW 4.6 mph - N/A   Clear
9:15 AM -8.5 °F - -13.4 °F 79% 30.14 in 10.0 mi Calm Calm - N/A   Clear
9:35 AM -4.4 °F - -9.4 °F 79% 30.14 in 10.0 mi Calm Calm - N/A   Clear
9:55 AM -1.5 °F -13.3 °F -6.9 °F 78% 30.14 in 10.0 mi SW 5.8 mph - N/A   Clear
10:15 AM 1.2 °F - -5.6 °F 73% 30.14 in 10.0 mi Calm Calm - N/A   Clear
10:35 AM 3.2 °F - -4.4 °F 71% 30.14 in 10.0 mi Calm Calm - N/A   Clear
10:55 AM 4.6 °F - -4.4 °F 66% 30.13 in 10.0 mi Calm Calm - N/A   Clear
11:15 AM 6.6 °F - -3.5 °F 63% 30.13 in 10.0 mi Calm Calm - N/A   Clear
11:35 AM 6.4 °F - -3.1 °F 65% 30.12 in 10.0 mi Calm Calm - N/A   Clear
11:55 AM 8.6 °F - -1.8 °F 63% 30.11 in 10.0 mi Calm Calm - N/A   Clear
12:15 PM 9.9 °F - -0.2 °F 64% 30.10 in 10.0 mi Calm Calm - N/A   Clear
12:35 PM 11.7 °F - 1.4 °F 63% 30.09 in 10.0 mi Calm Calm - N/A   Clear
12:55 PM 12.9 °F - 2.3 °F 63% 30.08 in 10.0 mi Calm Calm - N/A   Clear
1:15 PM 14.0 °F 5.1 °F 3.4 °F 63% 30.08 in 10.0 mi SW 5.8 mph - N/A   Clear
1:35 PM 14.5 °F - 3.0 °F 60% 30.08 in 10.0 mi Calm Calm - N/A   Clear
1:55 PM 14.9 °F 6.1 °F 3.2 °F 60% 30.08 in 10.0 mi SW 5.8 mph - N/A   Clear
2:15 PM 15.4 °F 9.8 °F 3.9 °F 60% 30.07 in 10.0 mi SSW 3.5 mph - N/A   Clear
2:35 PM 16.3 °F 6.7 °F 3.7 °F 58% 30.07 in 10.0 mi SW 6.9 mph - N/A   Mostly Cloudy
2:55 PM 15.8 °F 7.2 °F 3.7 °F 59% 30.08 in 10.0 mi West 5.8 mph - N/A   Overcast
3:15 PM 15.8 °F 8.6 °F 3.9 °F 60% 30.08 in 10.0 mi West 4.6 mph - N/A   Overcast
3:35 PM 15.6 °F 8.3 °F 4.1 °F 60% 30.08 in 10.0 mi South 4.6 mph - N/A   Mostly Cloudy
3:55 PM 14.9 °F 4.0 °F 4.1 °F 62% 30.09 in 10.0 mi SW 8.1 mph - N/A   Scattered Clouds
4:15 PM 15.4 °F 5.6 °F 4.5 °F 62% 30.09 in 10.0 mi WSW 6.9 mph - N/A   Clear
4:35 PM 15.4 °F 6.8 °F 4.6 °F 62% 30.09 in 10.0 mi WSW 5.8 mph - N/A   Clear
4:55 PM 14.7 °F 4.8 °F 4.5 °F 64% 30.10 in 10.0 mi West 6.9 mph - N/A   Clear
5:15 PM 13.6 °F 6.0 °F 3.9 °F 65% 30.10 in 10.0 mi WSW 4.6 mph - N/A   Clear
5:35 PM 12.2 °F 4.3 °F 3.0 °F 67% 30.10 in 10.0 mi WSW 4.6 mph - N/A   Clear
5:55 PM 11.8 °F 3.9 °F 3.0 °F 68% 30.11 in 10.0 mi West 4.6 mph - N/A   Clear
6:15 PM 12.6 °F 4.8 °F 3.0 °F 66% 30.11 in 10.0 mi West 4.6 mph - N/A   Clear
6:35 PM 11.3 °F - 2.7 °F 68% 30.11 in 10.0 mi Calm Calm - N/A   Clear
6:55 PM 9.1 °F 0.8 °F 1.9 °F 73% 30.11 in 10.0 mi West 4.6 mph - N/A   Clear
7:15 PM 8.2 °F -0.3 °F 1.2 °F 73% 30.12 in 10.0 mi West 4.6 mph - N/A   Clear
7:35 PM 6.3 °F -2.6 °F 0.3 °F 77% 30.12 in 10.0 mi WNW 4.6 mph - N/A   Clear
7:55 PM 5.2 °F -1.9 °F -0.4 °F 78% 30.12 in 10.0 mi WNW 3.5 mph - N/A   Clear
8:15 PM 5.4 °F -3.6 °F -0.4 °F 77% 30.13 in 10.0 mi West 4.6 mph - N/A   Clear
8:35 PM 3.4 °F - -2.2 °F 78% 30.13 in 10.0 mi Calm Calm - N/A   Clear
8:55 PM 3.2 °F -4.2 °F -1.3 °F 82% 30.13 in 10.0 mi WSW 3.5 mph - N/A   Clear
9:15 PM 2.5 °F -5.0 °F -1.7 °F 83% 30.14 in 10.0 mi WSW 3.5 mph - N/A   Clear
9:35 PM 1.8 °F - -1.7 °F 86% 30.14 in 10.0 mi Calm Calm - N/A   Clear
9:55 PM 0.5 °F -7.3 °F -3.8 °F 82% 30.15 in 10.0 mi NW 3.5 mph - N/A   Clear
10:15 PM 5.7 °F -1.3 °F -4.4 °F 63% 30.16 in 10.0 mi NW 3.5 mph - N/A   Clear
10:35 PM 7.7 °F -0.9 °F -3.1 °F 61% 30.16 in 10.0 mi North 4.6 mph - N/A   Mostly Cloudy
10:55 PM 7.7 °F - -3.1 °F 61% 30.16 in 10.0 mi Calm Calm - N/A   Overcast
11:15 PM 7.3 °F -2.8 °F -4.0 °F 60% 30.16 in 10.0 mi North 5.8 mph - N/A   Overcast
11:35 PM 7.0 °F -1.7 °F -4.4 °F 60% 30.16 in 10.0 mi North 4.6 mph - N/A   Overcast
11:55 PM 6.6 °F -7.1 °F -4.5 °F 60% 30.16 in 10.0 mi North 9.2 mph - N/A   Overcast